Location: Windsor
(43.2292°N, 89.3015°W)
Time: 01:10:15
(UTC+00:00)

DIWATA 2B (PO-101) - Pass Details

Date: 27 June 2022
Orbit: 583 x 599 km, 98.0° (Epoch: 15 August)

Event Time Altitude Azimuth Distance (km) Brightness Sun altitude
Exits shadow 09:08:32 12° 251° (WSW) 1,825 ? -10.6°
Maximum altitude 09:09:48 13° 270° (W) 1,745 ? -10.5°
Drops below altitude 10° 09:11:47 10° 298° (WNW) 1,943 ? -10.2°
Sets 09:15:06 0° 326° (NNW) 2,854 ? -9.8°
